User: anonymous   Login
Location: Unspecified
(48.5670°N, 0.0000°E)
Time: 21:29:45
(UTC+00:00)
Language:

Hubble Space Telescope - Orbit

View from above orbital plane
View from above orbital plane
View from above satellite
View from above satellite

Ground track
Ground track

The orbit data is extracted from the following two-line orbital elements,

1 20580U 90037B   20272.64405067 +.00000676 +00000-0 +30144-4 0  9994
2 20580 028.4709 357.1305 0002865 119.3281 355.8162 15.09438875471560
Epoch (UTC): 28 September 2020 15:27:25
Eccentricity: 0.0002865
inclination: 28.4709°
perigee height: 536 km
apogee height: 540 km
right ascension of ascending node: 357.1305°
argument of perigee: 119.3281°
revolutions per day: 15.09438875
mean anomaly at epoch: 355.8162°
orbit number at epoch: 47156

The dashed part of the orbit path shows where the satellite is in the earth's shadow,  

DLR